Location: Alvis C Story Elementary School
(33.0968°N, 96.6364°W)
Time: 02:53:34
(UTC+00:00)

Cosmos 2297 Rocket - Visible Passes

Search period start: 04 July 2022 00:00
Search period end: 14 July 2022 00:00
Orbit: 840 x 842 km, 71.0° (Epoch: 03 July)

Date Brightness Start Highest point End Pass type
(mag) Time Alt. Az. Time Alt. Az. Time Alt. Az.
04 Jul 4.2 07:15:34 17° E 07:15:34 17° E 07:18:14 10° ENE visible
04 Jul 2.5 08:57:22 46° W 08:58:08 49° WNW 09:03:35 10° N visible
05 Jul 4.4 07:00:51 15° E 07:00:51 15° E 07:02:54 10° ENE visible
05 Jul 2.5 08:42:39 51° WNW 08:42:57 52° WNW 08:48:28 10° N visible
06 Jul 4.5 06:46:06 14° ENE 06:46:06 14° ENE 06:47:32 10° ENE visible
06 Jul 2.5 08:27:54 55° WNW 08:27:54 55° WNW 08:33:19 10° N visible
07 Jul 4.6 06:31:19 12° ENE 06:31:19 12° ENE 06:32:09 10° ENE visible
07 Jul 2.5 08:13:07 56° NW 08:13:07 56° NW 08:18:11 10° NNE visible
08 Jul 4.7 06:16:30 10° ENE 06:16:30 10° ENE 06:16:43 10° ENE visible
08 Jul 2.6 07:58:18 55° NNW 07:58:18 55° NNW 08:03:03 10° NNE visible
09 Jul 2.8 07:43:27 52° NNW 07:43:27 52° NNW 07:47:54 10° NNE visible
10 Jul 2.9 07:28:35 49° N 07:28:35 49° N 07:32:45 10° NNE visible
11 Jul 3.1 07:13:40 46° N 07:13:40 46° N 07:17:36 10° NNE visible
12 Jul 3.2 06:58:44 43° N 06:58:44 43° N 07:02:27 10° NNE visible
13 Jul 3.3 06:43:45 40° NNE 06:43:45 40° NNE 06:47:17 10° NNE visible
13 Jul 4.6 08:25:53 10° WNW 08:26:27 10° NW 08:27:01 10° NW visible
